Home   Weather   Abu Dhabi   Past weeks

Flag for United Arab Emirates Past Weather in Abu Dhabi, Abu Dhabi, United Arab Emirates — Yesterday and Last 2 Weeks

Now
99 °F

Sunny.


Feels Like: 106 °F
Forecast: 78 / 98 °F
Wind: 10 mph from North

Location: Abu Dhabi Bateen Airport

Current Time: Apr 29, 2017 at 3:27:26 pm

Latest Report: Apr 29, 2017 at 3:00 pm


Visibility: 10 mi

Pressure: 29.74 "Hg

Humidity: 39%

Dew Point: 70 °F

Location of Abu DhabiLocation

Past Weather in Abu Dhabi — Graph

°F

Abu Dhabi Temperature Yesterday

Maximum temperature yesterday: 106 °F (at 3:00 pm)
Minimum temperature yesterday: 79 °F (at 6:00 am)
Average temperature yesterday: 89 °F

High & Low Weather Summary for the Past Weeks

 TemperatureHumidityPressure
High108 °F (Apr 29, 2:00 pm)94% (Apr 17, 4:00 am)29.86 "Hg (Apr 17, 4:00 am)
Low75 °F (Apr 17, 6:00 am)7% (Apr 25, 12:00 pm)29.68 "Hg (Apr 15, 3:00 pm)
Average86 °F56%29.77 "Hg
* Reported Apr 14 2:00 pm — Apr 29 2:00 pm, Abu Dhabi, Weather by CustomWeather, © 2017

Note: Actual official high and low records may vary slightly from our data, if they occured in-between our weather recording intervals... More about our weather records

Advertising

Abu Dhabi Weather History for the Previous 24 Hours

Scroll right to see more
 ConditionsComfort  
Time TempWeatherWind HumidityBarometerVisibility
2:00 pm
Sat, Apr 29
108 °FSunny.3 mph15%29.77 "Hg10 mi
1:00 pm104 °FSunny.8 mph19%29.80 "Hg10 mi
12:00 pm100 °FClear.5 mph24%29.80 "Hg4 mi
11:00 am97 °FClear.9 mph27%29.83 "Hg4 mi
10:00 am95 °FClear.10 mph30%29.83 "Hg4 mi
9:00 am90 °FClear.12 mph33%29.83 "Hg5 mi
8:00 am88 °FSunny.9 mph35%29.83 "Hg10 mi
7:00 am86 °FSunny.9 mph38%29.80 "Hg10 mi
6:00 am82 °FSunny.6 mph48%29.77 "Hg10 mi
5:00 am84 °FClear.2 mph48%29.77 "Hg10 mi
4:00 am82 °FClear.No wind62%29.77 "Hg10 mi
3:00 am84 °FPassing clouds.6 mph62%29.77 "HgN/A
2:00 am84 °FPassing clouds.5 mph70%29.77 "HgN/A
1:00 am84 °FClear.6 mph74%29.77 "Hg10 mi
12:00 am84 °FClear.2 mph66%29.77 "Hg10 mi
11:00 pm
Fri, Apr 28
86 °FPassing clouds.5 mph62%29.77 "HgN/A
10:00 pm86 °FClear.7 mph66%29.77 "Hg10 mi
9:00 pm84 °FClear.7 mph79%29.77 "Hg10 mi
8:00 pm86 °FClear.8 mph70%29.74 "Hg10 mi
7:00 pm88 °FPassing clouds.7 mph62%29.74 "HgN/A
6:00 pm95 °FPassing clouds.9 mph47%29.71 "HgN/A
5:00 pm100 °FSunny.10 mph29%29.71 "Hg10 mi
4:00 pm100 °FSunny.12 mph35%29.71 "Hg10 mi
3:00 pm106 °FPassing clouds.5 mph19%29.74 "HgN/A
Weather by CustomWeather, © 2017

See weather overviewHow to use our weather pages